When you browse on this site, cookies collect data to enhance your experience and personalize the content and advertising you see.
Visit our Privacy Policy to learn more. By continuing to use the site, you agree to this use of cookies and data.
  • In Germany
  • List of Countries
  • For 7 days
  • Water Temperature
  • Weather Map
  • Weather Widgets
  • user-avatar
    Login

    Hourly Weather Kaprun

    Today, 5 June, Friday

    Time Temperature Precipitation Wind Pressure Humidity
    00:00 +3°C° 2.5 mm 2 mps 585 mmHg 97%
    01:00 +3°C° 0 mm 1 mps 585 mmHg 99%
    02:00 +3°C° 1.9 mm 1 mps 584 mmHg 99%
    03:00 +1°C° 1.9 mm 2 mps 584 mmHg 98%
    04:00 +1°C° 1.9 mm 2 mps 584 mmHg 98%
    05:00 +2°C° 1 mm 1 mps 584 mmHg 98%
    06:00 +2°C° 1 mm 1 mps 585 mmHg 98%
    07:00 +2°C° 1 mm 1 mps 585 mmHg 98%
    08:00 +3°C° 0.9 mm 1 mps 585 mmHg 97%
    09:00 +3°C° 0.9 mm 1 mps 586 mmHg 96%
    10:00 +4°C° 0.9 mm 1 mps 586 mmHg 96%
    11:00 +4°C° 0.4 mm 1 mps 586 mmHg 94%
    12:00 +5°C° 0.4 mm 1 mps 587 mmHg 93%
    13:00 +4°C° 0.4 mm 0 mps 587 mmHg 91%
    14:00 +5°C° 0.1 mm 0 mps 587 mmHg 88%
    15:00 +6°C° 0.1 mm 0 mps 588 mmHg 84%
    16:00 +7°C° 0.1 mm 1 mps 588 mmHg 80%
    17:00 +6°C° 0 mm 0 mps 588 mmHg 84%
    18:00 +5°C° 0 mm 0 mps 588 mmHg 87%
    19:00 +5°C° 0 mm 0 mps 588 mmHg 91%
    20:00 +5°C° 0 mm 1 mps 588 mmHg 91%
    21:00 +4°C° 0 mm 1 mps 588 mmHg 92%
    22:00 +2°C° 0 mm 1 mps 588 mmHg 93%
    23:00 +2°C° 0 mm 1 mps 589 mmHg 93%

    Tomorrow, 6 June, Saturday

    Time Temperature Precipitation Wind Pressure Humidity
    00:00 +2°C° 0 mm 1 mps 589 mmHg 93%
    01:00 +2°C° 0 mm 1 mps 589 mmHg 93%
    02:00 +2°C° 0 mm 1 mps 589 mmHg 93%
    03:00 +2°C° 0 mm 2 mps 589 mmHg 94%
    04:00 +2°C° 0 mm 2 mps 589 mmHg 94%
    05:00 +3°C° 0 mm 2 mps 590 mmHg 91%
    06:00 +4°C° 0 mm 2 mps 591 mmHg 89%
    07:00 +5°C° 0 mm 2 mps 591 mmHg 86%
    08:00 +7°C° 0 mm 2 mps 592 mmHg 81%
    09:00 +8°C° 0 mm 2 mps 593 mmHg 77%
    10:00 +9°C° 0 mm 2 mps 593 mmHg 73%
    11:00 +10°C° 0.2 mm 2 mps 593 mmHg 73%
    12:00 +10°C° 0.2 mm 2 mps 593 mmHg 73%
    13:00 +12°C° 0.2 mm 2 mps 593 mmHg 73%
    14:00 +10°C° 0.7 mm 2 mps 593 mmHg 78%
    15:00 +10°C° 0.7 mm 2 mps 593 mmHg 84%
    16:00 +9°C° 0.7 mm 2 mps 592 mmHg 89%
    17:00 +10°C° 0.9 mm 1 mps 592 mmHg 92%
    18:00 +9°C° 0.9 mm 1 mps 592 mmHg 95%
    19:00 +8°C° 0.9 mm 1 mps 591 mmHg 98%
    20:00 +7°C° 1.2 mm 1 mps 592 mmHg 98%
    21:00 +7°C° 1.2 mm 1 mps 592 mmHg 98%
    22:00 +6°C° 1.2 mm 1 mps 592 mmHg 98%
    23:00 +6°C° 0.3 mm 1 mps 592 mmHg 98%

    Day after tomorrow, 7 June, Sunday

    Time Temperature Precipitation Wind Pressure Humidity
    00:00 +6°C° 0.3 mm 1 mps 591 mmHg 98%
    01:00 +6°C° 0.3 mm 1 mps 591 mmHg 98%
    02:00 +6°C° 0 mm 1 mps 591 mmHg 98%
    03:00 +5°C° 0 mm 1 mps 591 mmHg 97%
    04:00 +5°C° 0 mm 1 mps 590 mmHg 97%
    05:00 +6°C° 0 mm 1 mps 591 mmHg 97%
    06:00 +6°C° 0 mm 1 mps 591 mmHg 96%
    07:00 +7°C° 0 mm 1 mps 592 mmHg 96%
    08:00 +7°C° 0.4 mm 1 mps 592 mmHg 96%
    09:00 +7°C° 0.4 mm 1 mps 592 mmHg 96%
    10:00 +6°C° 0.4 mm 2 mps 593 mmHg 96%
    11:00 +6°C° 1 mm 2 mps 593 mmHg 96%
    12:00 +7°C° 1 mm 1 mps 593 mmHg 96%
    13:00 +6°C° 1 mm 1 mps 593 mmHg 96%
    14:00 +6°C° 1.3 mm 1 mps 592 mmHg 97%
    15:00 +4°C° 1.3 mm 2 mps 592 mmHg 97%
    16:00 +4°C° 1.3 mm 2 mps 592 mmHg 98%
    17:00 +4°C° 1.9 mm 1 mps 592 mmHg 98%
    18:00 +4°C° 1.9 mm 1 mps 592 mmHg 98%
    19:00 +3°C° 1.9 mm 1 mps 592 mmHg 98%
    20:00 +3°C° 1.6 mm 1 mps 592 mmHg 98%
    21:00 +3°C° 1.6 mm 1 mps 592 mmHg 98%
    22:00 +3°C° 1.6 mm 1 mps 592 mmHg 98%
    23:00 +3°C° 1.1 mm 1 mps 592 mmHg 98%

    8 June, Monday

    Time Temperature Precipitation Wind Pressure Humidity
    00:00 +3°C° 1.1 mm 1 mps 592 mmHg 98%
    01:00 +2°C° 1.1 mm 0 mps 592 mmHg 98%
    02:00 +2°C° 0.1 mm 0 mps 592 mmHg 98%
    03:00 +2°C° 0.1 mm 0 mps 591 mmHg 98%
    04:00 +2°C° 0.1 mm 0 mps 591 mmHg 98%
    05:00 +3°C° 0.1 mm 0 mps 591 mmHg 98%
    06:00 +3°C° 0.1 mm 0 mps 592 mmHg 97%
    07:00 +5°C° 0.1 mm 1 mps 592 mmHg 97%
    08:00 +5°C° 0.5 mm 1 mps 592 mmHg 97%
    09:00 +5°C° 0.5 mm 1 mps 592 mmHg 97%
    10:00 +5°C° 0.5 mm 1 mps 593 mmHg 97%
    11:00 +6°C° 0.2 mm 1 mps 593 mmHg 96%
    12:00 +6°C° 0.2 mm 1 mps 593 mmHg 95%
    13:00 +7°C° 0.2 mm 1 mps 593 mmHg 94%
    14:00 +7°C° 0.1 mm 1 mps 593 mmHg 92%
    15:00 +8°C° 0.1 mm 1 mps 593 mmHg 91%
    16:00 +8°C° 0.1 mm 1 mps 593 mmHg 89%
    17:00 +8°C° 0.3 mm 1 mps 593 mmHg 92%
    18:00 +7°C° 0.3 mm 1 mps 593 mmHg 94%
    19:00 +6°C° 0.3 mm 1 mps 593 mmHg 97%
    20:00 +6°C° 0.8 mm 1 mps 593 mmHg 98%
    21:00 +6°C° 0.8 mm 1 mps 593 mmHg 98%
    22:00 +5°C° 0.8 mm 1 mps 594 mmHg 99%
    23:00 +5°C° 1.1 mm 1 mps 593 mmHg 99%

    9 June, Tuesday

    Time Temperature Precipitation Wind Pressure Humidity
    00:00 +5°C° 1.1 mm 1 mps 593 mmHg 99%
    01:00 +5°C° 1.1 mm 1 mps 593 mmHg 99%
    02:00 +4°C° 0.4 mm 0 mps 593 mmHg 99%
    03:00 +4°C° 0.4 mm 0 mps 593 mmHg 99%
    04:00 +4°C° 0.4 mm 0 mps 593 mmHg 99%
    05:00 +4°C° 0.1 mm 0 mps 594 mmHg 98%
    06:00 +4°C° 0.1 mm 0 mps 594 mmHg 97%
    07:00 +5°C° 0.1 mm 0 mps 594 mmHg 96%
    08:00 +7°C° 0.1 mm 1 mps 595 mmHg 93%
    09:00 +8°C° 0.1 mm 1 mps 595 mmHg 89%
    10:00 +9°C° 0.1 mm 1 mps 596 mmHg 86%
    11:00 +10°C° 0.3 mm 1 mps 596 mmHg 81%
    12:00 +10°C° 0.3 mm 1 mps 596 mmHg 76%
    13:00 +10°C° 0.3 mm 2 mps 597 mmHg 72%
    14:00 +11°C° 0.7 mm 1 mps 596 mmHg 77%
    15:00 +10°C° 0.7 mm 1 mps 596 mmHg 82%
    16:00 +10°C° 0.7 mm 1 mps 596 mmHg 87%
    17:00 +9°C° 0.8 mm 1 mps 596 mmHg 90%
    18:00 +9°C° 0.8 mm 1 mps 595 mmHg 93%
    19:00 +8°C° 0.8 mm 1 mps 595 mmHg 95%
    20:00 +6°C° 0.2 mm 0 mps 595 mmHg 96%
    21:00 +5°C° 0.2 mm 0 mps 595 mmHg 97%
    22:00 +5°C° 0.2 mm 0 mps 595 mmHg 97%
    23:00 +4°C° 0 mm 0 mps 595 mmHg 98%

    10 June, Wednesday

    Time Temperature Precipitation Wind Pressure Humidity
    00:00 +4°C° 0 mm 0 mps 595 mmHg 98%
    01:00 +4°C° 0 mm 0 mps 595 mmHg 98%
    02:00 +3°C° 0 mm 0 mps 595 mmHg 97%
    03:00 +3°C° 0 mm 0 mps 594 mmHg 96%
    04:00 +3°C° 0 mm 0 mps 594 mmHg 95%
    05:00 +4°C° 0 mm 0 mps 595 mmHg 93%
    06:00 +6°C° 0 mm 0 mps 596 mmHg 91%
    07:00 +7°C° 0 mm 0 mps 597 mmHg 88%
    08:00 +9°C° 0.2 mm 1 mps 597 mmHg 85%
    09:00 +10°C° 0.2 mm 1 mps 598 mmHg 81%
    10:00 +11°C° 0.2 mm 1 mps 598 mmHg 78%
    11:00 +11°C° 0.7 mm 1 mps 598 mmHg 81%
    12:00 +11°C° 0.7 mm 1 mps 598 mmHg 83%
    13:00 +10°C° 0.7 mm 2 mps 598 mmHg 86%
    14:00 +10°C° 1 mm 1 mps 598 mmHg 88%
    15:00 +10°C° 1 mm 1 mps 597 mmHg 91%
    16:00 +10°C° 1 mm 1 mps 597 mmHg 93%
    17:00 +9°C° 0.8 mm 1 mps 597 mmHg 95%
    18:00 +9°C° 0.8 mm 1 mps 597 mmHg 96%
    19:00 +8°C° 0.8 mm 1 mps 597 mmHg 97%
    20:00 +8°C° 0.8 mm 1 mps 597 mmHg 97%
    21:00 +7°C° 0.8 mm 0 mps 597 mmHg 98%
    22:00 +6°C° 0.8 mm 0 mps 597 mmHg 98%
    23:00 +6°C° 1.1 mm 0 mps 597 mmHg 98%
    Show more